This demonstration page uses our WeatherBlox Daily Observations layout. Learn more.

Left ArrowRight Arrow

Hourly Observations for April 12, 2021

Temp ( °F °C ) Dew Point ( °F °C ) Humidity (%) Winds ( mph kmh ) Pressure ( in mb ) Visibility ( mi km ) Precip ( " mm )
12:53 am 00:53 Clear 56 13.3 44 6.7 65 65 Calm 29.73 1007 10 16 0.00 0.00
1:53 am 01:53 Clear 57 13.9 43 6.1 60 60 SSW 3 6 29.73 1007 10 16 0.00 0.00
2:53 am 02:53 Clear 52 11.1 45 7.2 77 77 Calm 29.74 1007 10 16 0.00 0.00
3:53 am 03:53 Clear 51 10.6 45 7.2 80 80 Calm 29.75 1007 10 16 0.00 0.00
4:53 am 04:53 Clear 48 8.9 44 6.7 86 86 Calm 29.76 1008 10 16 0.00 0.00
5:53 am 05:53 Clear 50 10 44 6.7 80 80 Calm 29.79 1009 10 16 0.00 0.00
6:53 am 06:53 Clear 50 10 46 7.8 86 86 Calm 29.81 1009 10 16 0.00 0.00
7:53 am 07:53 Sunny 50 10 46 7.8 86 86 W 3 6 29.83 1010 10 16 0.00 0.00
8:53 am 08:53 Sunny 55 12.8 45 7.2 69 69 WSW 3 6 29.84 1011 10 16 0.00 0.00
9:53 am 09:53 Sunny 63 17.2 46 7.8 54 54 VRB 3 6 29.85 1011 10 16 0.00 0.00
10:53 am 10:53 Sunny 70 21.1 43 6.1 38 38 WNW 13 20 29.85 1011 10 16 0.00 0.00
11:53 am 11:53 Sunny 75 23.9 42 5.6 31 31 WNW 12 19 29.85 1011 10 16 0.00 0.00
12:53 pm 12:53 Sunny 77 25 43 6.1 30 30 WNW 12 19 29.85 1011 10 16 0.00 0.00
1:53 pm 13:53 Sunny 80 26.7 43 6.1 27 27 undefined N/A 29.85 1011 10 16 0.00 0.00
2:53 pm 14:53 Sunny 81 27.2 42 5.6 25 25 WNW 14 22 29.85 1011 10 16 0.00 0.00
3:53 pm 15:53 Sunny 82 27.8 40 4.4 22 22 NW 16 26 29.83 1010 10 16 0.00 0.00
4:53 pm 16:53 Sunny 83 28.3 40 4.4 22 22 NW 13 20 29.83 1010 10 16 0.00 0.00
5:53 pm 17:53 Sunny 83 28.3 34 1.1 17 17 WNW 15 24 29.83 1010 10 16 0.00 0.00
6:53 pm 18:53 Sunny 80 26.7 36 2.2 20 20 NW 12 19 29.85 1011 10 16 0.00 0.00
7:53 pm 19:53 Sunny 77 25 37 2.8 24 24 WNW 7 11 29.87 1012 10 16 0.00 0.00
8:53 pm 20:53 Clear 73 22.8 38 3.3 28 28 W 5 7 29.89 1012 10 16 0.00 0.00
9:53 pm 21:53 Clear 68 20 41 5 38 38 Calm 29.92 1013 10 16 0.00 0.00
10:53 pm 22:53 Clear 64 17.8 44 6.7 48 48 Calm 29.93 1014 10 16 0.00 0.00
11:53 pm 23:53 Clear 58 14.4 44 6.7 60 60 NE 3 6 29.94 1014 10 16 0.00 0.00

Powered by AerisWeather